Location: ??????
(41.3164°N, 22.6615°E)
Time: 09:45:17
(UTC+00:00)

CZ-2C R/B - Pass Details

Date: 16 October 2021
Orbit: 784 x 871 km, 98.2° (Epoch: 02 December)

Event Time Altitude Azimuth Distance (km) Brightness Sun altitude
Rises 16:08:08 0° 20° (NNE) 3,468 5.6 -4.8°
Reaches altitude 10° 16:10:42 10° 28° (NNE) 2,524 4.8 -5.2°
Maximum altitude 16:15:58 40° 97° (E) 1,247 3.2 -6.2°
Drops below altitude 10° 16:21:08 10° 166° (SSE) 2,479 5.1 -7.2°
Sets 16:23:38 0° 174° (S) 3,399 5.9 -7.7°
